Regional Weather Roundup
Issued by NWS

Home | Current Version | Previous Version | Text Only | Print | Product List | Glossary Off
Versions: 1 2 3 4 5 6 7 8 9 10 11 12 13 14 15 16 17 18 19 20 21 22 23 24 25 26 27 28 29 30 31 32 33 34 35 36 37 38 39 40 41 42 43 44 45 46 47 48 49 50

838
ASUS43 KLSX 280359
RWRMO

WEATHER SUMMARY FOR MISSOURI
NATIONAL WEATHER SERVICE SPRINGFIELD MO
1100 PM CDT THU JUL 27 2017

NOTE: "FAIR" INDICATES FEW OR NO CLOUDS BELOW 12,000 FEET WITH NO
       SIGNIFICANT WEATHER AND/OR OBSTRUCTIONS TO VISIBILITY.
       CURRENT SKY AND/OR WEATHER CONDITIONS ARE NOT AVAILABLE FOR
       CHILLICOTHE AND FARMINGTON.

MOZ001>031-035>038-043-044-053-054-280500-
...NORTHERN AND WESTERN MISSOURI...

CITY           SKY/WX    TMP DP  RH WIND       PRES   REMARKS
KANSAS CTY INT PTCLDY    76  72  87 N5        29.97R
LEE`S SUMMIT   CLEAR     77  73  87 NE5       29.96R
ST JOSEPH      PTCLDY    74  71  91 N9        29.97R
CHILLICOTHE      N/A     78  74  87 VRB3      29.97R
KIRKSVILLE     MOCLDY    73  68  84 N5        29.98R

$$
MOZ066>068-077>081-088>096-101>105-280500-
...SOUTHWEST MISSOURI...

CITY           SKY/WX    TMP DP  RH WIND       PRES   REMARKS
SPRINGFIELD    CLOUDY    78  77  96 CALM      29.94S
JOPLIN         CLOUDY    79  78  97 E5        29.93S
BRANSON        CLOUDY    77  77 100 CALM      29.94F

$$
MOZ032>034-039>042-045>050-055>058-069>072-280500-
...CENTRAL MISSOURI...

CITY           SKY/WX    TMP DP  RH WIND       PRES   REMARKS
COLUMBIA       CLOUDY    76  74  93 N5        29.94R
JEFFERSON CITY CLOUDY    77  76  96 NW3       29.92S
ROLLA          CLOUDY    74  73  97 E3        29.95R
SEDALIA        CLOUDY    78  76  93 NE5       29.96R
WARRENSBURG    PTCLDY    73  72  94 NE3       29.94S
OSAGE BEACH    MOCLDY    76  75  97 CALM      29.94S

$$
MOZ051-052-059>065-280500-
...EAST CENTRAL MISSOURI...

CITY           SKY/WX    TMP DP  RH WIND       PRES   REMARKS
ST LOUIS INTL  MOCLDY    79  73  82 CALM      29.90R
SPIRIT OF STL  CLOUDY    76  76 100 CALM      29.88S
ST CHARLES     CLOUDY    77  76  96 SW3       29.88S

$$
MOZ072>076-082>087-097>100-106>115-280500-
...SOUTH CENTRAL AND SOUTHEAST MISSOURI...

CITY           SKY/WX    TMP DP  RH WIND       PRES   REMARKS
CAPE GIRARDEAU CLOUDY    79  73  82 SW7       29.86F
FARMINGTON     LGT RAIN  76  74  93 NW7       29.92S
POPLAR BLUFF   LGT RAIN  78  76  93 CALM      29.88F
WEST PLAINS    CLOUDY    77  75  93 NW3       29.95S

$$




USA.gov is the U.S. government's official web portal to all federal, state and local government web resources and services.